Tiempo cada hora Cauquenes

Hoy, 16 Enero, Sábado

Tiempo Temperatura Precipitaciones Viento Presión Humedad
00:00 +11°C° 0 mm 4 mps 747 mmHg 68%
01:00 +11°C° 0 mm 4 mps 747 mmHg 70%
02:00 +10°C° 0 mm 4 mps 747 mmHg 74%
03:00 +9°C° 0 mm 3 mps 746 mmHg 78%
04:00 +9°C° 0 mm 3 mps 746 mmHg 82%
05:00 +11°C° 0 mm 4 mps 747 mmHg 73%
06:00 +13°C° 0 mm 4 mps 747 mmHg 64%
07:00 +15°C° 0 mm 4 mps 747 mmHg 56%
08:00 +19°C° 0 mm 5 mps 747 mmHg 46%
09:00 +22°C° 0 mm 5 mps 747 mmHg 35%
10:00 +26°C° 0 mm 5 mps 747 mmHg 25%
11:00 +28°C° 0 mm 5 mps 747 mmHg 22%
12:00 +30°C° 0 mm 5 mps 747 mmHg 18%
13:00 +33°C° 0 mm 5 mps 747 mmHg 14%
14:00 +32°C° 0 mm 5 mps 747 mmHg 16%
15:00 +32°C° 0 mm 6 mps 746 mmHg 19%
16:00 +30°C° 0 mm 6 mps 746 mmHg 21%
17:00 +28°C° 0 mm 5 mps 747 mmHg 28%
18:00 +25°C° 0 mm 4 mps 747 mmHg 36%
19:00 +21°C° 0 mm 3 mps 747 mmHg 43%
20:00 +19°C° 0 mm 3 mps 747 mmHg 45%
21:00 +18°C° 0 mm 3 mps 747 mmHg 47%
22:00 +17°C° 0 mm 3 mps 748 mmHg 49%
23:00 +14°C° 0 mm 3 mps 748 mmHg 56%

Mañana, 17 Enero, Domingo

Tiempo Temperatura Precipitaciones Viento Presión Humedad
00:00 +14°C° 0 mm 2 mps 747 mmHg 63%
01:00 +13°C° 0 mm 2 mps 747 mmHg 70%
02:00 +12°C° 0 mm 2 mps 747 mmHg 74%
03:00 +12°C° 0 mm 2 mps 747 mmHg 79%
04:00 +10°C° 0 mm 2 mps 747 mmHg 84%
05:00 +13°C° 0 mm 2 mps 747 mmHg 74%
06:00 +14°C° 0 mm 3 mps 747 mmHg 65%
07:00 +17°C° 0 mm 3 mps 747 mmHg 55%
08:00 +21°C° 0 mm 4 mps 747 mmHg 45%
09:00 +25°C° 0 mm 4 mps 747 mmHg 35%
10:00 +29°C° 0 mm 4 mps 746 mmHg 25%
11:00 +32°C° 0 mm 4 mps 746 mmHg 21%
12:00 +34°C° 0 mm 5 mps 746 mmHg 17%
13:00 +36°C° 0 mm 5 mps 745 mmHg 12%
14:00 +36°C° 0 mm 5 mps 745 mmHg 14%
15:00 +35°C° 0 mm 5 mps 745 mmHg 16%
16:00 +35°C° 0 mm 5 mps 744 mmHg 18%
17:00 +30°C° 0 mm 4 mps 744 mmHg 26%
18:00 +27°C° 0 mm 4 mps 744 mmHg 34%
19:00 +24°C° 0 mm 3 mps 744 mmHg 43%
20:00 +21°C° 0 mm 3 mps 745 mmHg 44%
21:00 +20°C° 0 mm 3 mps 745 mmHg 45%
22:00 +19°C° 0 mm 3 mps 745 mmHg 47%
23:00 +17°C° 0 mm 3 mps 745 mmHg 52%

Pasado mañana, 18 Enero, Lunes

Tiempo Temperatura Precipitaciones Viento Presión Humedad
00:00 +16°C° 0 mm 2 mps 744 mmHg 57%
01:00 +15°C° 0 mm 2 mps 744 mmHg 62%
02:00 +14°C° 0 mm 2 mps 744 mmHg 65%
03:00 +13°C° 0 mm 2 mps 744 mmHg 68%
04:00 +13°C° 0 mm 2 mps 744 mmHg 70%
05:00 +15°C° 0 mm 2 mps 744 mmHg 64%
06:00 +17°C° 0 mm 2 mps 744 mmHg 58%
07:00 +19°C° 0 mm 2 mps 745 mmHg 52%
08:00 +23°C° 0 mm 2 mps 745 mmHg 43%
09:00 +26°C° 0 mm 2 mps 745 mmHg 34%
10:00 +30°C° 0 mm 2 mps 745 mmHg 25%
11:00 +32°C° 0 mm 2 mps 745 mmHg 22%
12:00 +35°C° 0 mm 2 mps 745 mmHg 19%
13:00 +37°C° 0 mm 2 mps 744 mmHg 16%
14:00 +35°C° 0 mm 3 mps 744 mmHg 18%
15:00 +34°C° 0 mm 4 mps 744 mmHg 21%
16:00 +33°C° 0 mm 5 mps 744 mmHg 24%
17:00 +28°C° 0 mm 4 mps 744 mmHg 33%
18:00 +25°C° 0 mm 3 mps 744 mmHg 41%
19:00 +21°C° 0 mm 2 mps 744 mmHg 50%
20:00 +19°C° 0 mm 2 mps 744 mmHg 53%
21:00 +19°C° 0 mm 1 mps 745 mmHg 55%
22:00 +18°C° 0 mm 1 mps 745 mmHg 58%
23:00 +18°C° 0 mm 1 mps 745 mmHg 62%

19 Enero, Martes

Tiempo Temperatura Precipitaciones Viento Presión Humedad
00:00 +18°C° 0 mm 1 mps 745 mmHg 66%
01:00 +18°C° 0 mm 1 mps 744 mmHg 69%
02:00 +16°C° 0 mm 1 mps 745 mmHg 75%
03:00 +15°C° 0 mm 1 mps 745 mmHg 81%
04:00 +15°C° 0 mm 1 mps 745 mmHg 86%
05:00 +18°C° 0 mm 1 mps 745 mmHg 78%
06:00 +20°C° 0 mm 1 mps 745 mmHg 70%
07:00 +21°C° 0 mm 1 mps 746 mmHg 62%
08:00 +24°C° 0 mm 2 mps 746 mmHg 52%
09:00 +27°C° 0 mm 2 mps 746 mmHg 43%
10:00 +30°C° 0 mm 3 mps 746 mmHg 33%
11:00 +33°C° 0 mm 3 mps 746 mmHg 29%
12:00 +35°C° 0 mm 3 mps 746 mmHg 25%
13:00 +36°C° 0 mm 3 mps 746 mmHg 22%
14:00 +35°C° 0 mm 4 mps 746 mmHg 25%
15:00 +34°C° 0 mm 4 mps 745 mmHg 28%
16:00 +33°C° 0 mm 5 mps 745 mmHg 32%
17:00 +28°C° 0 mm 4 mps 745 mmHg 40%
18:00 +25°C° 0 mm 3 mps 745 mmHg 49%
19:00 +21°C° 0 mm 2 mps 746 mmHg 57%
20:00 +19°C° 0 mm 2 mps 746 mmHg 63%
21:00 +18°C° 0 mm 1 mps 746 mmHg 69%
22:00 +16°C° 0 mm 1 mps 746 mmHg 75%
23:00 +16°C° 0 mm 1 mps 746 mmHg 74%

20 Enero, Miércoles

Tiempo Temperatura Precipitaciones Viento Presión Humedad
00:00 +16°C° 0 mm 1 mps 745 mmHg 73%
01:00 +16°C° 0 mm 1 mps 745 mmHg 71%
02:00 +16°C° 0 mm 1 mps 745 mmHg 75%
03:00 +15°C° 0 mm 1 mps 744 mmHg 79%
04:00 +15°C° 0 mm 1 mps 744 mmHg 83%
05:00 +18°C° 0 mm 1 mps 744 mmHg 73%
06:00 +20°C° 0 mm 1 mps 745 mmHg 63%
07:00 +21°C° 0 mm 2 mps 745 mmHg 52%
08:00 +26°C° 0 mm 2 mps 745 mmHg 43%
09:00 +29°C° 0 mm 2 mps 745 mmHg 34%
10:00 +33°C° 0 mm 3 mps 745 mmHg 24%
11:00 +34°C° 0 mm 3 mps 744 mmHg 23%
12:00 +36°C° 0 mm 4 mps 744 mmHg 22%
13:00 +37°C° 0 mm 4 mps 744 mmHg 20%
14:00 +35°C° 0 mm 4 mps 744 mmHg 23%
15:00 +34°C° 0 mm 5 mps 744 mmHg 25%
16:00 +33°C° 0 mm 5 mps 744 mmHg 27%
17:00 +28°C° 0 mm 4 mps 744 mmHg 37%
18:00 +25°C° 0 mm 3 mps 744 mmHg 47%
19:00 +21°C° 0 mm 2 mps 744 mmHg 57%
20:00 +19°C° 0 mm 2 mps 744 mmHg 63%
21:00 +18°C° 0 mm 1 mps 745 mmHg 69%
22:00 +15°C° 0 mm 1 mps 745 mmHg 75%
23:00 +15°C° 0 mm 1 mps 745 mmHg 74%

21 Enero, Jueves

Tiempo Temperatura Precipitaciones Viento Presión Humedad
00:00 +15°C° 0 mm 1 mps 744 mmHg 74%
01:00 +14°C° 0 mm 0 mps 744 mmHg 73%
02:00 +14°C° 0 mm 0 mps 744 mmHg 75%
03:00 +13°C° 0 mm 0 mps 744 mmHg 77%
04:00 +13°C° 0 mm 0 mps 744 mmHg 79%
05:00 +15°C° 0 mm 0 mps 744 mmHg 71%
06:00 +20°C° 0 mm 1 mps 745 mmHg 63%
07:00 +22°C° 0 mm 1 mps 745 mmHg 54%
08:00 +25°C° 0 mm 1 mps 745 mmHg 46%
09:00 +28°C° 0 mm 2 mps 745 mmHg 37%
10:00 +31°C° 0 mm 2 mps 745 mmHg 29%
11:00 +33°C° 0 mm 3 mps 745 mmHg 27%
12:00 +35°C° 0 mm 3 mps 745 mmHg 25%
13:00 +36°C° 0 mm 4 mps 745 mmHg 24%
14:00 +35°C° 0 mm 4 mps 745 mmHg 25%
15:00 +33°C° 0 mm 5 mps 745 mmHg 27%
16:00 +32°C° 0 mm 6 mps 745 mmHg 29%
17:00 +28°C° 0 mm 5 mps 745 mmHg 38%
18:00 +24°C° 0 mm 3 mps 746 mmHg 46%
19:00 +20°C° 0 mm 2 mps 746 mmHg 55%
20:00 +18°C° 0 mm 2 mps 746 mmHg 61%
21:00 +17°C° 0 mm 2 mps 747 mmHg 68%
22:00 +15°C° 0 mm 1 mps 747 mmHg 74%
23:00 +15°C° 0 mm 1 mps 747 mmHg 74%
Mostrar más